DLH1AN EDDS-EDDF

Flight info

Callsign DLH1AN
Flight time 0h 23m
Altitude 20000
Route ETASA2H ETASA T163 SPESA SPESA5B
Aircraft A321/M-SDE3FGHIRWY/LB1

Departure

Time 2026-04-16 10:04
Airport Stuttgart Airport (EDDS)

Arrival

Time 2026-04-16 10:27
Airport Frankfurt Main Airport (EDDF)
Time Latitude Longitude Altitude Speed Heading
2026-04-16 09:39 48.68893 9.19430 1315 ft 0 kts 344°
2026-04-16 09:57 48.68883 9.19434 1315 ft 4 kts 344°
2026-04-16 09:57 48.68857 9.19445 1314 ft 4 kts 344°
2026-04-16 09:57 48.68833 9.19452 1313 ft 4 kts 20°
2026-04-16 09:58 48.68816 9.19428 1313 ft 4 kts 71°
2026-04-16 09:58 48.68812 9.19412 1313 ft 1 kts 74°
2026-04-16 10:01 48.68814 9.19421 1313 ft 3 kts 74°
2026-04-16 10:01 48.68826 9.19483 1312 ft 9 kts 74°
2026-04-16 10:01 48.68847 9.19598 1310 ft 13 kts 74°
2026-04-16 10:02 48.68875 9.19743 1307 ft 11 kts 73°
2026-04-16 10:02 48.68879 9.19873 1302 ft 14 kts 136°
2026-04-16 10:02 48.68766 9.19951 1294 ft 21 kts 158°
2026-04-16 10:02 48.68611 9.20019 1285 ft 24 kts 160°
2026-04-16 10:03 48.68600 9.20143 1282 ft 26 kts 73°
2026-04-16 10:03 48.68727 9.20817 1267 ft 105 kts 74°
2026-04-16 10:03 48.68992 9.22212 1233 ft 167 kts 73°
2026-04-16 10:03 48.69318 9.24009 1719 ft 178 kts 74°
2026-04-16 10:04 48.69634 9.25850 2448 ft 182 kts 74°
2026-04-16 10:04 48.70005 9.27666 3197 ft 179 kts 70°
2026-04-16 10:04 48.70403 9.29546 3534 ft 199 kts 72°
2026-04-16 10:04 48.70824 9.31669 3815 ft 222 kts 72°
2026-04-16 10:05 48.71284 9.34054 4060 ft 249 kts 74°
2026-04-16 10:05 48.71790 9.36681 4519 ft 267 kts 73°
2026-04-16 10:05 48.72310 9.39421 5234 ft 274 kts 71°
2026-04-16 10:05 48.73306 9.41854 5953 ft 275 kts 38°
2026-04-16 10:06 48.74991 9.43151 6729 ft 274 kts 14°
2026-04-16 10:06 48.76863 9.43688 7486 ft 275 kts
2026-04-16 10:06 48.78746 9.43208 8237 ft 275 kts 341°
2026-04-16 10:06 48.80512 9.42045 8990 ft 277 kts 330°
2026-04-16 10:07 48.82187 9.40637 9766 ft 280 kts 331°
2026-04-16 10:07 48.83942 9.39301 10431 ft 286 kts 333°
2026-04-16 10:07 48.85807 9.37950 10615 ft 309 kts 334°
2026-04-16 10:07 48.87827 9.36502 10748 ft 331 kts 334°
2026-04-16 10:08 48.89970 9.34960 10928 ft 350 kts 334°
2026-04-16 10:08 48.92197 9.33345 11415 ft 357 kts 333°
2026-04-16 10:08 48.94439 9.31679 12054 ft 360 kts 332°
2026-04-16 10:08 48.96689 9.29974 12685 ft 363 kts 332°
2026-04-16 10:09 48.98955 9.28245 13314 ft 366 kts 332°
2026-04-16 10:09 49.01238 9.26496 13925 ft 369 kts 332°
2026-04-16 10:09 49.03532 9.24737 14513 ft 370 kts 332°
2026-04-16 10:09 49.05847 9.22961 15060 ft 373 kts 331°
2026-04-16 10:10 49.08148 9.21195 15596 ft 376 kts 331°
2026-04-16 10:10 49.10498 9.19398 16149 ft 379 kts 331°
2026-04-16 10:10 49.12944 9.17831 16656 ft 386 kts 343°
2026-04-16 10:10 49.15634 9.17414 17157 ft 395 kts
2026-04-16 10:11 49.18373 9.17983 17652 ft 400 kts
2026-04-16 10:11 49.21140 9.18654 18130 ft 403 kts
2026-04-16 10:11 49.23929 9.19349 18590 ft 407 kts
2026-04-16 10:11 49.26735 9.20052 19008 ft 410 kts
2026-04-16 10:12 49.29529 9.20748 19427 ft 412 kts
2026-04-16 10:12 49.32381 9.21455 19466 ft 422 kts
2026-04-16 10:12 49.35295 9.22170 19068 ft 424 kts
2026-04-16 10:12 49.38212 9.22884 18848 ft 424 kts
2026-04-16 10:13 49.41128 9.23599 18415 ft 423 kts
2026-04-16 10:13 49.44022 9.24318 17885 ft 420 kts
2026-04-16 10:13 49.46877 9.25033 17375 ft 411 kts
2026-04-16 10:13 49.49671 9.25732 16854 ft 403 kts
2026-04-16 10:14 49.52405 9.26416 16359 ft 394 kts
2026-04-16 10:14 49.55084 9.27083 15905 ft 385 kts
2026-04-16 10:14 49.57694 9.27733 15458 ft 376 kts
2026-04-16 10:14 49.60248 9.28364 15027 ft 368 kts
2026-04-16 10:15 49.62748 9.28981 14590 ft 360 kts
2026-04-16 10:15 49.65201 9.29584 14161 ft 354 kts
2026-04-16 10:15 49.67608 9.30173 13693 ft 347 kts
2026-04-16 10:15 49.69972 9.30756 13205 ft 340 kts
2026-04-16 10:16 49.72284 9.31333 12742 ft 334 kts
2026-04-16 10:16 49.74567 9.31676 12279 ft 326 kts 355°
2026-04-16 10:16 49.76751 9.30954 11837 ft 317 kts 335°
2026-04-16 10:16 49.78609 9.29278 11573 ft 304 kts 325°
2026-04-16 10:17 49.80333 9.27476 11333 ft 295 kts 325°
2026-04-16 10:17 49.81999 9.25736 11217 ft 283 kts 325°
2026-04-16 10:17 49.83631 9.24029 11237 ft 283 kts 324°
2026-04-16 10:17 49.85262 9.22322 11235 ft 283 kts 324°
2026-04-16 10:18 49.86896 9.20615 11234 ft 283 kts 324°
2026-04-16 10:18 49.88531 9.18904 11235 ft 283 kts 324°
2026-04-16 10:18 49.90164 9.17191 11234 ft 283 kts 324°
2026-04-16 10:18 49.91794 9.15479 11223 ft 283 kts 324°
2026-04-16 10:19 49.93432 9.13758 10777 ft 285 kts 325°
2026-04-16 10:19 49.95086 9.12019 10031 ft 289 kts 324°
2026-04-16 10:19 49.96761 9.10258 9208 ft 291 kts 324°
2026-04-16 10:19 49.98443 9.08489 8407 ft 293 kts 324°
2026-04-16 10:20 50.00113 9.06730 7631 ft 293 kts 324°
2026-04-16 10:20 50.01780 9.04974 6920 ft 285 kts 324°
2026-04-16 10:20 50.03382 9.03286 6616 ft 274 kts 324°
2026-04-16 10:20 50.04959 9.01619 6193 ft 273 kts 324°
2026-04-16 10:21 50.06529 8.99954 5759 ft 273 kts 323°
2026-04-16 10:21 50.08103 8.98278 5316 ft 275 kts 324°
2026-04-16 10:21 50.09687 8.96595 4904 ft 275 kts 324°
2026-04-16 10:21 50.11151 8.94715 4488 ft 272 kts 305°
2026-04-16 10:22 50.11778 8.92061 4281 ft 258 kts 269°
2026-04-16 10:22 50.11382 8.89406 4136 ft 249 kts 248°
2026-04-16 10:22 50.10740 8.87001 4030 ft 236 kts 248°
2026-04-16 10:22 50.10159 8.84658 3841 ft 229 kts 249°
2026-04-16 10:23 50.09619 8.82375 3577 ft 221 kts 250°
2026-04-16 10:23 50.09093 8.80137 3284 ft 220 kts 250°
2026-04-16 10:23 50.08579 8.77958 3012 ft 208 kts 250°
2026-04-16 10:23 50.08093 8.75899 2711 ft 194 kts 251°
2026-04-16 10:24 50.07665 8.74015 2490 ft 172 kts 254°
2026-04-16 10:24 50.07434 8.72346 2309 ft 152 kts 257°
2026-04-16 10:24 50.07209 8.70761 2001 ft 144 kts 256°
2026-04-16 10:24 50.06953 8.69301 1781 ft 139 kts 251°
2026-04-16 10:25 50.06651 8.67865 1629 ft 140 kts 250°
2026-04-16 10:25 50.06322 8.66446 1462 ft 140 kts 250°
2026-04-16 10:25 50.05974 8.65033 1315 ft 139 kts 247°
2026-04-16 10:25 50.05652 8.63629 1127 ft 137 kts 250°
2026-04-16 10:26 50.05336 8.62208 937 ft 140 kts 247°
2026-04-16 10:26 50.05007 8.60774 728 ft 142 kts 249°
2026-04-16 10:26 50.04664 8.59332 523 ft 143 kts 248°
2026-04-16 10:26 50.04431 8.58364 393 ft 144 kts 249°
2026-04-16 10:27 50.04116 8.57027 367 ft 116 kts 247°
2026-04-16 10:27 50.03920 8.56241 356 ft 39 kts 249°
2026-04-16 10:27 50.03888 8.55993 351 ft 1 kts 267°
2026-04-16 10:27 50.03886 8.55942 351 ft 9 kts 269°
2026-04-16 10:28 50.03894 8.55789 352 ft 19 kts 279°
2026-04-16 10:28 50.03948 8.55620 349 ft 12 kts 354°
2026-04-16 10:28 50.03990 8.55703 352 ft 10 kts 72°
2026-04-16 10:28 50.04016 8.55814 353 ft 12 kts 69°
2026-04-16 10:29 50.04046 8.55937 354 ft 13 kts 69°
2026-04-16 10:29 50.04067 8.56017 352 ft 8 kts 70°
2026-04-16 10:29 50.04087 8.56110 356 ft 10 kts 71°
2026-04-16 10:29 50.04112 8.56213 359 ft 11 kts 67°
2026-04-16 10:30 50.04157 8.56283 353 ft 8 kts
2026-04-16 10:30 50.04213 8.56258 358 ft 9 kts 339°
2026-04-16 10:30 50.04274 8.56218 356 ft 10 kts 332°
2026-04-16 10:30 50.04291 8.56124 355 ft 10 kts 279°
2026-04-16 10:31 50.04354 8.56048 359 ft 15 kts 342°
2026-04-16 10:31 50.04447 8.56099 358 ft 17 kts 64°
2026-04-16 10:31 50.04485 8.56264 363 ft 8 kts 70°
2026-04-16 10:31 50.04466 8.56312 361 ft 1 kts 157°
2026-04-16 10:32 50.04449 8.56320 360 ft 4 kts 163°
2026-04-16 10:32 50.04431 8.56328 359 ft 1 kts 165°